Weather in Chufarovo

Russia / Ulyanovsk Oblast     54°05′57″N   47°20′42″E
temp.,
°C
wind,
m/s
gust,
m/s
humid.,
%
clouds,
%
prec.,
mm/h
press.,
hPa
HPBL,
m
7 may, fri
fri701:00+10s41072100 0.0 1015197
04:00+9s41269100 0.0 1015246
07:00+10s41271100 0.0 1015313
10:00+14s71158100 0.0 1014909
13:00+17s71151100 0.0 10131678
16:00+18ssw71148100 0.0 10132198
19:00+12w61086100 0.7 1014509
22:00+9nw3495100 1.8 1016322
8 may, sat
sat801:00+8nw2394100 0.3 1017234
04:00+8n2593100 0.5 1017289
07:00+8ne369394 0.1 1017282
10:00+10e3388100 0.1 1017455
13:00+16sse356199 0.2 10151527
16:00+16sse3664100 0.3 1014411
19:00+16sse366699 0.0 1012133
22:00+12s337680 0.0 101337
9 may, sun
sun901:00+10s3383100 0.0 101345
04:00+11sse3877100 0.0 1012155
07:00+11sse31079100 0.0 1012289
10:00+16ssw6958100 0.0 1012709
13:00+18sw6755100 0.0 10131547
16:00+12w2394100 2.3 1015136
19:00+10nnw6995100 4.6 1017367
22:00+8n5996100 8.4 1018393
10 may, mon
mon1001:00+7n5994100 0.2 1020486
04:00+7n4893100 0.9 1022429
07:00+6n61093100 0.8 1025485
10:00+7nne61188100 1.2 1027508
13:00+9nne6979100 0.0 1028534
16:00+11ne597058 0.0 1028634
19:00+12ne487440 0.0 1028572
22:00+6ne338721 0.0 103035
11 may, tue
tue1101:00+6ne310845 0.0 1030185
04:00+5ne311793 0.0 1031213
07:00+7ene412795 0.0 1032328
10:00+13ene69552 0.0 1032720
13:00+15ene67492 0.0 10311036
16:00+16ene56485 0.0 10301083
19:00+14ene48645 0.0 1030276
22:00+10ene377695 0.0 1031110